sat.trackr.live / text

‹ back to catalog

FLOCK 4G-4

NORAD 62659 · 2025-009BC

PAYLOAD ACTIVE UNKNOWN

§ Identity

Operator
Country
US
Launch date
2025-01-14
Launch site
AFWTR
Launch vehicle
Mass (kg)
RCS (m²)

Purposes: earth_obs

External: N2YO · Heavens-Above · Gunter

§ Orbital elements

Epoch: 2026-05-24T19:15:30.987072Z

Period
94.21 min
Inclination
97.3951°
Eccentricity
0.0003492
Mean motion
15.28454415 rev/d
Perigee alt
478.0 km
Apogee alt
482.8 km
Semi-major
6,858.6 km
B*
1.0411e-3
RAAN
226.2415°
Arg perigee
66.6869°
Mean anomaly
293.4737°
Rev number
13,293

§ Raw data

FLOCK 4G-41 62659U 25009BC  26144.80244198  .00028846  00000+0  10411-2 0  99932 62659  97.3951 226.2415 0003492  66.6869 293.4737 15.28454415132937

JSON: /api/v1/satellites/62659 · /tle

For live sub-satellite position, see the globe view (requires WebGL).

§ Visibility from observer

Set your observer location to see the next 7 days of passes ≥ 10°. The values pass through the URL so the page stays shareable.

No JS? Fill the form by hand. The geolocation button needs JavaScript.